Weather in Sergiyevskiy

Russia / Saratov Oblast     51°17′25″N   45°39′26″E
temp.,
°C
wind,
m/s
gust,
m/s
humid.,
%
clouds,
%
prec.,
mm/h
press.,
hPa
HPBL,
m
13 april, tue
tue1301:00+8e337117 0.0 103016
04:00+7ne337478 0.0 103111
07:00+5ne45795 0.0 103146
10:00+7ene45715 0.0 103293
13:00+12ese46498 0.0 1030394
16:00+13ese5743100 0.0 1029504
19:00+12ese4552100 0.0 102749
22:00+9e466321 0.0 102871
14 april, wed
wed1401:00+7ene33705 0.0 102716
04:00+6ne33750 0.0 102718
07:00+5ne45790 0.0 102647
10:00+7ene34680 0.0 1025114
13:00+11ese46480 0.0 1023431
16:00+13ese57450 0.0 1022615
19:00+13ese45535 0.0 102042
22:00+10e3366100 0.0 102021
15 april, thu
thu1501:00+8ne22765 0.0 102012
04:00+7nne448679 0.0 101930
07:00+6ne4690100 0.0 101862
10:00+8ene457989 0.0 1018107
13:00+12e355984 0.0 1016227
16:00+15se564552 0.0 1015715
19:00+14ese3349100 0.0 101517
22:00+11se116072 0.0 101510
16 april, fri
fri1601:00+10nne226675 0.0 101410
04:00+9ne3371100 0.0 101511
07:00+8ne337886 0.0 101524
10:00+9ne347175 0.0 101587
13:00+12ne34565 0.0 1015186
16:00+15nne33455 0.0 1015641
19:00+14n33495 0.0 101522
22:00+10ne33635 0.0 101615
17 april, sat
sat1701:00+9n22695 0.0 101610
04:00+8nne337570 0.0 101719
07:00+7ne6109525 0.0 1018162
10:00+8ne7108617 0.0 1019244
13:00+9ne810733 0.0 1020362
16:00+10ne810633 0.0 1020413
19:00+9ne813545 0.0 1021342
22:00+7ne814595 0.0 1023307